Weather in Bolshiye Rymy

Russia / Kostroma Oblast     57°28′55″N   43°52′55″E
temp.,
°C
wind,
m/s
gust,
m/s
humid.,
%
clouds,
%
prec.,
mm/h
press.,
hPa
HPBL,
m
16 october, sat
sat1600:00+5wsw4118452 0.0 1015641
03:00+5ssw31084100 0.0 1014655
06:00+5ssw41189100 0.0 1014546
09:00+5ssw51385100 0.0 1013659
12:00+8ssw51377100 0.0 1012740
15:00+9ssw61374100 0.0 1011824
18:00+8ssw61469100 0.0 1011947
21:00+8sw61474100 0.3 10101183
17 october, sun
sun1700:00+7sw51184100 0.8 10091248
03:00+6wsw410835 1.6 1010636
06:00+4sw4119425 0.0 1011498
09:00+6sw5128311 0.0 1011660
12:00+8sw51172100 0.0 1010955
15:00+8sw5107176 0.0 10091190
18:00+7sw4975100 0.0 10101137
21:00+7sw31083100 0.2 10091152
18 october, mon
mon1800:00+7wsw3986100 0.4 10091111
03:00+6sw498662 0.6 1008689
06:00+4sw399399 0.0 1009369
09:00+5sw388779 0.0 1008463
12:00+7ssw4779100 0.1 1006881
15:00+8ssw61276100 0.3 10041303
18:00+3wnw2796100 1.5 1006358
21:00+2wsw39895 1.6 1008466
19 october, tue
tue1900:00+1sw39945 0.0 1008324
03:00+1sw279720 0.0 1008244
06:000sw269855 0.0 1009153
09:00+2wsw3587100 0.1 1010401
12:00+3w357493 0.0 1010816
15:00+4wnw357299 0.2 1011910
18:00+1wnw279494 0.1 1012367
21:00+1nw369296 0.1 1013461
20 october, wed
wed2000:00+1nw3681100 0.0 1013789
03:00+1nw4982100 0.1 1015711
06:00−1nw488822 0.1 1016589
09:00−1nw478018 0.1 1018557
12:00+2nw45555 0.0 10191141
15:00+2nw35505 0.0 10191364
18:00−2w227010 0.0 102026
21:00−2ssw237312 0.0 101943